Hourly Data Report for May 27, 2012

All times are specified in Local Standard Time (LST). Add 1 hour to adjust for Daylight Saving Time where and when it is observed.

PENTICTON A
BRITISH COLUMBIA

49°27'45.000" N
119°36'08.000" W
344.40 m
1126146
71889
YYF

Download Data

Hourly Data (May 2012)
Hourly Data Report for May 27, 2012
Temp Definition
°C
Dew Point Temp Definition
°C
Rel Hum Definition
%
Wind Dir Definition
10's deg

Wind Spd Definition
km/h
Visibility Definition
km
Stn Press Definition
kPa
Hmdx Definition


Wind Chill Definition


Weather Definition


TIME
00:00 Legend Double Dagger 14.1 0.1 38   0 10.0 96.89     LegendNANA
01:00 Legend Double Dagger 10.8 0.6 49 32 7 10.0 96.92     Clear
02:00 Legend Double Dagger 8.8 0.0 54   0 10.0 96.96     LegendNANA
03:00 Legend Double Dagger 8.4 0.9 59   0 10.0 97.01     LegendNANA
04:00 Legend Double Dagger 4.5 -0.3 71 2 5 10.0 97.07     Clear
05:00 Legend Double Dagger 5.3 1.1 74 4 4 10.0 97.07     LegendNANA
06:00 Legend Double Dagger 11.2 3.3 58   0 10.0 97.08     LegendNANA
07:00 Legend Double Dagger 14.0 2.6 46 11 5 10.0 97.06     Clear
08:00 Legend Double Dagger 15.4 2.0 40 19 7 10.0 97.04     LegendNANA
09:00 Legend Double Dagger 18.2 1.4 32   0 10.0 96.99     LegendNANA
10:00 Legend Double Dagger 20.5 4.7 35   0 10.0 96.93     Mainly Clear
11:00 Legend Double Dagger 22.6 5.3 32 19 10 10.0 96.86     LegendNANA
12:00 Legend Double Dagger 25.0 4.4 26 1 12 10.0 96.83     LegendNANA
13:00 Legend Double Dagger 23.5 3.1 26 23 8 10.0 96.83     Mostly Cloudy
14:00 Legend Double Dagger 25.7 4.5 25 36 11 10.0 96.78 25   LegendNANA
15:00 Legend Double Dagger 24.3 3.8 26   0 10.0 96.76     LegendNANA
16:00 Legend Double Dagger 23.5 6.1 32   0 10.0 96.76     Mainly Clear
17:00 Legend Double Dagger 24.9 -0.1 19 28 20 10.0 96.77     LegendNANA
18:00 Legend Double Dagger 23.3 0.6 22 27 15 10.0 96.83     LegendNANA
19:00 Legend Double Dagger 21.0 -0.2 24 32 5 10.0 96.93     Mainly Clear
20:00 Legend Double Dagger 19.1 -0.7 26   0 10.0 97.02     LegendNANA
21:00 Legend Double Dagger 16.5 0.3 33 2 4 10.0 97.11     LegendNANA
22:00 Legend Double Dagger 14.2 1.2 41 1 8 10.0 97.17     Mainly Clear
23:00 Legend Double Dagger 9.1 1.3 58   0 10.0 97.20     LegendNANA

Notes on Data Quality.

Legend

  • E = Estimated
  • M = Missing
  • NA = Not Available
  • ‡ = Partner data that is not subject to review by the National Climate Archives
Date modified: